DECAYED

STARLINK-1890, 47173 (Decayed)

Orbit data source: Space-Track

STARLINK-1890, 47173 was a payload satellite owned by SpaceX/Seattle (US) in LEO that was launched on Wed, 25 Nov 2020 UTC via an FALCON 9 launch vehicle from the Air Force Eastern Test Range (AFETR). Payload-class satellites include a variety of spacecraft equipped with specific instruments for various scientific and technological missions. These include communications satellites like Starlink; space stations such as the ISS; scientific satellites like the Hubble; Earth observation satellites from companies like Planet Labs, Umbra, and HawkEye 360; GPS; miniature CubeSats for education and research; and military/defense satellites.

Not visible in the next 10 days
Identifier
47173, 2020-088BD
Orbit
Decayed
Country
Flag of USUS
Related business
Manufacturer
SpaceX/Seattle
Mission
Decayed Commercial Communications
Bus & Motor
STARLINK, Unknown motor
Mass
260 kg wet, ~248 kg dry
Launch date (UTC)
2020-11-25 (6 years ago)
Launch vehicle
FALCON 9
Launch site
Air Force Eastern Test Range (AFETR)
Object type
Payload
Rocket body
Debris
Shape & HBR
Box + 1 Pan, 10.1 m
Radar Cross Section
13.562 m², Large (>1 m²)

Expand to show TLE details & history
Last TLE update: 1 year ago

TLE from 1 year ago
0 STARLINK-1890
1 47173U 20088BD  25181.13668087  .12185560  12651-4  28086-3 0  9990
2 47173  53.0081 270.8196 0007382 354.5465  76.6203 16.45910676255243
Epoch: 2025-06-30T03:16Z
TLE epoch observation values (Epoch: 2025-06-30T03:16:49.227Z)
Latitude
49.29674°
Longitude
3.70137°
Altitude
154.61 km
Speed
7.82 km/s
True Right ascension
22h 05m 25s
True Declination
49° 06' 39"
Sunlit
Object was in daylight at epoch
Visualization orbit readout
Latitude
Unknown
Longitude
Unknown
Altitude
Unknown
Speed
Unknown
Apparent Right ascension
Unknown
Apparent Declination
Unknown
Sunlit
N/A
Visualization observer readout
Local Sidereal Time
21:28:35
Azimuth
Unknown
Elevation
Unknown
Doppler factor
Unknown
Orbital elements
Apogee altitude
155.24 km
Perigee altitude
145.602 km
Semi-major axis
6,528.558 km
Eccentricity
0.00074
Inclination
53.0081°
RAAN
270.8196°
Arg. of periapsis
354.5465°
True anomaly
76.70261°
Mean anomaly
76.6203°
Eccentric anomaly
76.66145°
Mean motion
4.1145 °/min
Orbital period
87.5 mins
BSTAR
0.00028086
Loading maneuver chart data...
Computing Atmospheric mass density...

Documentation

Showing up to 5 results
|